Skip Page Navigation
NASA JPL Caltech
NASA Logo - Jet Propulsion Laboratory + View the NASA Portal
+ Center for Near-Earth Object Studies
JPL Home Earth Solar System Stars & Galaxies Technology
JPL Solar System Dynamics
BODIES ORBITS EPHEMERIDES TOOLS PHYSICAL DATA DISCOVERY FAQ SITE MAP
JPL Small-Body Database Browser
Search: [ help ]  
452493 (2004 GS56)
Classification: Main-belt Asteroid          SPK-ID: 2452493
Ephemeris | Orbit Diagram | Orbital Elements | Mission Design | Physical Parameters | Discovery Circumstances ]

[ hide orbit diagram ]

For accurate long-term ephemerides, please instead use our Horizons system.This orbit viewer was implemented using two-body methods, and hence should not be used for determining accurate long-term trajectories (over several years or decades) or planetary encounter circumstances.


[ revert to old Java-based viewer ]

Orbital Elements at Epoch 2459000.5 (2020-May-31.0) TDB
Reference: JPL 11 (heliocentric ecliptic J2000)
 Element Value Uncertainty (1-sigma)   Units 
e .1071393929004692 6.4619e-08  
a 2.189211104842955 1.5139e-08 au
q 1.954660356139115 1.4036e-07 au
i 3.752644649653215 1.0605e-05 deg
node 357.3309504223424 0.0001007 deg
peri 129.3415533358526 0.00012091 deg
M 58.06718997271746 6.0605e-05 deg
tp 2458809.664925123715
(2019-Nov-22.16492512)
0.000199 TDB
period 1183.122981975557
3.24
1.2272e-05
3.36e-08
d
yr
n .3042794413467301 3.1562e-09 deg/d
Q 2.423761853546794 1.6761e-08 au
  Orbit Determination Parameters
   # obs. used (total)      77  
   data-arc span      6326 days (17.32 yr)  
   first obs. used      2002-10-09  
   last obs. used      2020-02-03  
   planetary ephem.      DE431  
   SB-pert. ephem.      SB431-N16  
   condition code      0  
   norm. resid. RMS      .63955  
   source      ORB  
   producer      Otto Matic  
   solution date      2020-Feb-26 11:35:55  

Additional Information
 Earth MOID = .972174 au 
 Jupiter MOID = 2.61188 au 
 T_jup = 3.664 
[ show covariance matrix ]

Ephemeris | Orbit Diagram | Orbital Elements | Mission Design | Physical Parameters | Discovery Circumstances ]

Physical Parameter Table
Parameter Symbol Value Units Sigma Reference Notes
absolute magnitude H 18.5   n/a MPO456154  

452493 (2004 GS56)          Discovered 2004-Apr-13 by Spacewatch at Kitt Peak
Reference: Last Updated: 2016-01-04

Alternate Designations
 2004 GS56 = 2012 UM125 
Ephemeris | Orbit Diagram | Orbital Elements | Mission Design | Physical Parameters | Discovery Circumstances ]
ABOUT SSD CREDITS/AWARDS PRIVACY/COPYRIGHT GLOSSARY LINKS
FirstGov 2020-Aug-10 09:07 UT
(server date/time)  
NASA Home Page
Site Manager:   Ryan S. Park
Webmaster  Alan B. Chamberlin